Вернуться в каталог

STARLINK-35500

АктивенСвязьVLEO
NORAD 66093·PAYLOAD·🇺🇸 United States

Запущен Oct 19, 2025 с Vandenberg Space Force Base

Loading…

Ближайшие Пролёты (ближайшие 24 часа)

TLE

СвежийSource: CelesTrak SupGP

Эпоха: Sep 15, 2026, 03:37 UTC

1 66093C 25236H   26258.15118056  .00019376  00000+0  57244-3 0  2580
2 66093  53.1571 302.3695 0001230  95.9816 234.8314 15.34382840    14

Отслеживайте STARLINK-35500 в реальном времени с AllMySat

Download on the App Store